Вернуться в каталог

EOS-4

АктивенНаукаSSO
NORAD 51656·PAYLOAD·🇮🇳 India

Запущен Feb 14, 2022 с Satish Dhawan Space Centre

Loading…

Ближайшие Пролёты (ближайшие 24 часа)

TLE

СвежийSource: Space-Track

Эпоха: Sep 14, 2026, 14:19 UTC

1 51656U 22013A   26257.59692233  .00001157  00000-0  69754-4 0  9991
2 51656  97.5146 262.8957 0001892  85.2430 274.9017 15.12723614253000

Отслеживайте EOS-4 в реальном времени с AllMySat

Download on the App Store